リニア彗星

230P/LINEAR (2022)

English version
Home page
Updated on September 4, 2024

---------------------------------------------------------------------

・ プロフィール

・ 写真集

・ 軌道要素

Epoch 2024 Mar. 31.0 TT = JDT 2460400.5
T 2022 Mar. 19.53549 TT                                 Rudenko
q   1.5693148            (2000.0)            P               Q
n   0.15353282     Peri.  313.52345     +0.46772701     -0.84625052
a   3.4541026      Node   106.94832     +0.86821527     +0.38579399
e   0.5456664      Incl.   15.46884     +0.16563121     +0.36745482
P   6.42
>From 1531 observations 1997 Jan. 10-2024 May 7, mean residual 0".5.

・ 光度変化

        H = 14.5  G = 0.15

---------------------------------------------------------------------

軌道要素はM.P.E.C. 2024-J304に掲載されたものです。
光度グラフはComet for Windowsで作成したものです。

---------------------------------------------------------------------

Copyright(C) Seiichi Yoshida (comet@aerith.net). All rights reserved.